Flag Weather past 2 weeks in Königswinter, North Rhine-Westphalia, Germany

Now
34 °F

Passing clouds.


Feels Like: 29 °F
Forecast: 33 / 46 °F
Wind: 6 mph from East

Location: Bonn-Hangelar

Current Time: Nov 29, 2014 at 7:40:30 AM

Latest Report: Nov 29, 2014 at 7:00 AM


Visibility: 8 mi

Pressure: 29.90 "Hg

Humidity: 100%

Dew point: 34 °F

Location of KönigswinterLocation

Historic Weather in Königswinter — Graph

°F

Königswinter temperature yesterday

Maximum temperature yesterday: 47 °F (at 1:00 PM)
Minimum temperature yesterday: 37 °F (at 11:00 PM)
Average temperature yesterday: 42 °F

Past Weeks' High & Low Weather Summary

 TemperatureHumidityPressure
High61 °F (Nov 22, 3:00 PM)100% (Nov 15, 4:00 AM)30.36 "Hg (Nov 15, 4:00 AM)
Low33 °F (Nov 25, 8:00 AM)64% (Nov 14, 2:00 PM)29.50 "Hg (Nov 16, 4:00 PM)
Average45 °F92%29.93 "Hg
* Reported Nov 14 6:00 AM — Nov 29 6:00 AM, Königswinter, Weather by CustomWeather, © 2014

Note: Actual official high and low records may vary slightly from our data, if they occured in-between our weather recording intervals... More about our weather records

Advertising

Königswinter weather history for previous 24 hours

 ConditionsComfort  
Time TempWeatherWind HumidityBarometerVisibility
6:00 AM
Nov 29
35 °FPassing clouds.6 mph99%29.89 "Hg9 mi
5:00 AM36 °FFog.5 mph98%29.88 "Hg3 mi
4:00 AM36 °FFog.6 mph98%29.87 "Hg3 mi
3:00 AM36 °FFog.6 mph98%29.88 "Hg3 mi
2:00 AM37 °FFog.8 mph97%29.87 "Hg3 mi
1:00 AM37 °FFog.7 mph98%29.86 "Hg3 mi
12:00 AM36 °FFog.6 mph98%29.86 "Hg3 mi
11:00 PM
Nov 28
37 °FFog.7 mph97%29.85 "Hg3 mi
10:00 PM38 °FFog.6 mph98%29.84 "Hg3 mi
9:00 PM38 °FPassing clouds.6 mph98%29.83 "Hg7 mi
8:00 PM38 °FPassing clouds.6 mph98%29.82 "Hg7 mi
7:00 PM40 °FPassing clouds.6 mph96%29.80 "Hg6 mi
6:00 PM41 °FPassing clouds.7 mph95%29.79 "Hg6 mi
5:00 PM42 °FPassing clouds.7 mph94%29.79 "Hg5 mi
4:00 PM45 °FPartly sunny.6 mph89%29.76 "Hg7 mi
3:00 PM46 °FPartly sunny.7 mph88%29.74 "Hg7 mi
2:00 PM46 °FOvercast.7 mph88%29.74 "Hg7 mi
1:00 PM47 °FOvercast.8 mph90%29.74 "Hg22 mi
12:00 PM45 °FOvercast.7 mph93%29.74 "Hg3 mi
11:00 AM44 °FOvercast.7 mph95%29.75 "Hg11 mi
10:00 AM44 °FOvercast.7 mph96%29.75 "Hg11 mi
9:00 AM44 °FOvercast.7 mph97%29.74 "Hg11 mi
8:00 AM43 °FOvercast.7 mph100%29.73 "Hg7 mi
7:00 AM42 °FFog.6 mph100%29.72 "Hg4 mi
Weather by CustomWeather, © 2014

See weather overviewHow to use our weather pages